Time,TemperatureF,DewpointF,PressureIn,WindDirection,WindDirectionDegrees,WindSpeedMPH,WindSpeedGustMPH,Humidity,HourlyPrecipIn,Conditions,Clouds,dailyrainin,SoftwareType,DateUTC
2013-04-11 00:00:00,59.2,16.9,30.29,WSW,256,0.0,5.0,19,0.00,,,0.00,Wunderground v.1.15,2013-04-11 07:00:00,
2013-04-11 00:05:00,58.8,16.6,30.28,WSW,256,0.0,6.0,19,0.00,,,0.00,Wunderground v.1.15,2013-04-11 07:05:00,
2013-04-11 00:15:00,58.5,16.3,30.28,WSW,256,1.0,6.0,19,0.00,,,0.00,Wunderground v.1.15,2013-04-11 07:15:00,
2013-04-11 00:20:00,58.5,16.3,30.28,WSW,257,2.0,2.0,19,0.00,,,0.00,Wunderground v.1.15,2013-04-11 07:20:00,
2013-04-11 00:30:00,58.1,16.0,30.27,WSW,257,0.0,6.0,19,0.00,,,0.00,Wunderground v.1.15,2013-04-11 07:30:00,
2013-04-11 00:35:00,58.5,16.3,30.27,WSW,257,0.0,6.0,19,0.00,,,0.00,Wunderground v.1.15,2013-04-11 07:35:00,
2013-04-11 00:45:00,58.6,16.4,30.27,WSW,257,0.0,6.0,19,0.00,,,0.00,Wunderground v.1.15,2013-04-11 07:45:00,
2013-04-11 00:50:00,59.1,16.8,30.27,WSW,257,0.0,6.0,19,0.00,,,0.00,Wunderground v.1.15,2013-04-11 07:50:00,
2013-04-11 00:55:00,59.5,15.9,30.27,WSW,257,0.0,6.0,18,0.00,,,0.00,Wunderground v.1.15,2013-04-11 07:55:00,
2013-04-11 01:00:00,59.2,15.7,30.27,WSW,257,0.0,6.0,18,0.00,,,0.00,Wunderground v.1.15,2013-04-11 08:00:00,
2013-04-11 01:05:00,59.2,16.9,30.26,WSW,257,0.0,6.0,19,0.00,,,0.00,Wunderground v.1.15,2013-04-11 08:05:00,
2013-04-11 01:15:00,59.0,16.7,30.26,WSW,257,0.0,0.0,19,0.00,,,0.00,Wunderground v.1.15,2013-04-11 08:15:00,
2013-04-11 01:20:00,59.1,16.8,30.26,WSW,257,0.0,0.0,19,0.00,,,0.00,Wunderground v.1.15,2013-04-11 08:20:00,
2013-04-11 01:30:00,59.3,15.7,30.25,WSW,257,1.0,1.0,18,0.00,,,0.00,Wunderground v.1.15,2013-04-11 08:30:00,
2013-04-11 01:35:00,59.3,15.7,30.25,WSW,257,1.0,7.0,18,0.00,,,0.00,Wunderground v.1.15,2013-04-11 08:35:00,
2013-04-11 01:45:00,58.8,15.3,30.25,WSW,257,0.0,7.0,18,0.00,,,0.00,Wunderground v.1.15,2013-04-11 08:45:00,
2013-04-11 01:50:00,58.4,15.0,30.25,WSW,257,0.0,7.0,18,0.00,,,0.00,Wunderground v.1.15,2013-04-11 08:50:00,
2013-04-11 01:55:00,58.5,15.1,30.24,WSW,257,0.0,7.0,18,0.00,,,0.00,Wunderground v.1.15,2013-04-11 08:55:00,
2013-04-11 02:00:00,58.7,15.2,30.24,WSW,257,0.0,7.0,18,0.00,,,0.00,Wunderground v.1.15,2013-04-11 09:00:00,
2013-04-11 02:10:00,58.9,15.4,30.24,WSW,257,0.0,4.0,18,0.00,,,0.00,Wunderground v.1.15,2013-04-11 09:10:00,
2013-04-11 02:20:00,58.9,15.4,30.24,WSW,257,0.0,4.0,18,0.00,,,0.00,Wunderground v.1.15,2013-04-11 09:20:00,
2013-04-11 02:30:00,58.0,14.7,30.23,WSW,257,1.0,1.0,18,0.00,,,0.00,Wunderground v.1.15,2013-04-11 09:30:00,
2013-04-11 02:35:00,58.2,14.8,30.23,WSW,257,0.0,5.0,18,0.00,,,0.00,Wunderground v.1.15,2013-04-11 09:35:00,
2013-04-11 02:40:00,58.5,15.1,30.23,WSW,257,0.0,5.0,18,0.00,,,0.00,Wunderground v.1.15,2013-04-11 09:40:00,
2013-04-11 02:45:00,58.8,15.3,30.23,WSW,257,0.0,5.0,18,0.00,,,0.00,Wunderground v.1.15,2013-04-11 09:45:00,
2013-04-11 02:50:00,58.9,15.4,30.22,WSW,257,1.0,5.0,18,0.00,,,0.00,Wunderground v.1.15,2013-04-11 09:50:00,
2013-04-11 03:00:00,58.9,15.4,30.22,WSW,257,1.0,5.0,18,0.00,,,0.00,Wunderground v.1.15,2013-04-11 10:00:00,
2013-04-11 03:05:00,58.7,15.2,30.22,WSW,257,1.0,5.0,18,0.00,,,0.00,Wunderground v.1.15,2013-04-11 10:05:00,
2013-04-11 03:15:00,58.8,15.3,30.21,WSW,257,1.0,4.0,18,0.00,,,0.00,Wunderground v.1.15,2013-04-11 10:15:00,
2013-04-11 03:20:00,58.7,15.2,30.21,WSW,257,1.0,1.0,18,0.00,,,0.00,Wunderground v.1.15,2013-04-11 10:20:00,
2013-04-11 03:30:00,59.1,14.3,30.21,WSW,257,0.0,4.0,17,0.00,,,0.00,Wunderground v.1.15,2013-04-11 10:30:00,
2013-04-11 03:40:00,59.8,14.8,30.20,WSW,257,0.0,5.0,17,0.00,,,0.00,Wunderground v.1.15,2013-04-11 10:40:00,
2013-04-11 03:45:00,60.1,15.1,30.20,WSW,257,0.0,5.0,17,0.00,,,0.00,Wunderground v.1.15,2013-04-11 10:45:00,
2013-04-11 03:50:00,60.0,15.0,30.20,WSW,257,0.0,5.0,17,0.00,,,0.00,Wunderground v.1.15,2013-04-11 10:50:00,
2013-04-11 04:00:00,59.8,14.8,30.19,WSW,257,0.0,5.0,17,0.00,,,0.00,Wunderground v.1.15,2013-04-11 11:00:00,
2013-04-11 04:05:00,59.5,14.6,30.19,WSW,257,0.0,5.0,17,0.00,,,0.00,Wunderground v.1.15,2013-04-11 11:05:00,
2013-04-11 04:15:00,59.5,14.6,30.18,WNW,284,1.0,3.0,17,0.00,,,0.00,Wunderground v.1.15,2013-04-11 11:15:00,
2013-04-11 04:20:00,60.7,15.6,30.18,WNW,284,1.0,1.0,17,0.00,,,0.00,Wunderground v.1.15,2013-04-11 11:20:00,
2013-04-11 04:25:00,60.7,15.6,30.18,WNW,284,0.0,1.0,17,0.00,,,0.00,Wunderground v.1.15,2013-04-11 11:25:00,
2013-04-11 04:30:00,61.1,15.9,30.18,NW,318,2.0,9.0,17,0.00,,,0.00,Wunderground v.1.15,2013-04-11 11:30:00,
2013-04-11 04:40:00,61.8,16.5,30.18,NW,317,2.0,2.0,17,0.00,,,0.00,Wunderground v.1.15,2013-04-11 11:40:00,
2013-04-11 04:45:00,60.4,15.3,30.18,NW,317,0.0,9.0,17,0.00,,,0.00,Wunderground v.1.15,2013-04-11 11:45:00,
2013-04-11 04:50:00,59.6,16.0,30.18,NW,317,0.0,9.0,18,0.00,,,0.00,Wunderground v.1.15,2013-04-11 11:50:00,
2013-04-11 05:00:00,59.1,16.8,30.18,NNE,17,1.0,1.0,19,0.00,,,0.00,Wunderground v.1.15,2013-04-11 12:00:00,
2013-04-11 05:05:00,59.5,17.1,30.18,NNE,31,2.0,3.0,19,0.00,,,0.00,Wunderground v.1.15,2013-04-11 12:05:00,
2013-04-11 05:10:00,60.2,16.5,30.18,ENE,57,3.0,6.0,18,0.00,,,0.00,Wunderground v.1.15,2013-04-11 12:10:00,
2013-04-11 05:20:00,60.2,16.5,30.18,NE,55,1.0,5.0,18,0.00,,,0.00,Wunderground v.1.15,2013-04-11 12:20:00,
2013-04-11 05:30:00,60.7,16.9,30.18,NNE,25,2.0,2.0,18,0.00,,,0.00,Wunderground v.1.15,2013-04-11 12:30:00,
2013-04-11 05:35:00,60.7,16.9,30.17,NNE,21,2.0,8.0,18,0.00,,,0.00,Wunderground v.1.15,2013-04-11 12:35:00,
2013-04-11 05:40:00,59.9,16.2,30.18,NNE,21,1.0,1.0,18,0.00,,,0.00,Wunderground v.1.15,2013-04-11 12:40:00,
2013-04-11 05:50:00,58.6,16.4,30.18,NNE,21,0.0,8.0,19,0.00,,,0.00,Wunderground v.1.15,2013-04-11 12:50:00,
2013-04-11 06:00:00,58.5,17.5,30.17,NNE,21,0.0,8.0,20,0.00,,,0.00,Wunderground v.1.15,2013-04-11 13:00:00,
2013-04-11 06:05:00,58.2,17.3,30.17,NNE,22,0.0,8.0,20,0.00,,,0.00,Wunderground v.1.15,2013-04-11 13:05:00,
2013-04-11 06:15:00,58.4,17.4,30.17,NNE,22,1.0,3.0,20,0.00,,,0.00,Wunderground v.1.15,2013-04-11 13:15:00,
2013-04-11 06:20:00,58.5,17.5,30.17,NNE,21,1.0,3.0,20,0.00,,,0.00,Wunderground v.1.15,2013-04-11 13:20:00,
2013-04-11 06:30:00,58.9,17.8,30.17,NNE,22,1.0,1.0,20,0.00,,,0.00,Wunderground v.1.15,2013-04-11 13:30:00,
2013-04-11 06:35:00,58.8,17.8,30.17,NNE,22,0.0,4.0,20,0.00,,,0.00,Wunderground v.1.15,2013-04-11 13:35:00,
2013-04-11 06:45:00,59.1,18.0,30.17,NNW,347,2.0,4.0,20,0.00,,,0.00,Wunderground v.1.15,2013-04-11 13:45:00,
2013-04-11 06:50:00,59.7,19.6,30.17,North,350,3.0,7.0,21,0.00,,,0.00,Wunderground v.1.15,2013-04-11 13:50:00,
2013-04-11 06:55:00,60.6,19.3,30.17,NW,310,5.0,7.0,20,0.00,,,0.00,Wunderground v.1.15,2013-04-11 13:55:00,
2013-04-11 07:05:00,61.8,19.0,30.17,NNW,338,7.0,16.0,19,0.00,,,0.00,Wunderground v.1.15,2013-04-11 14:05:00,
2013-04-11 07:15:00,62.3,20.7,30.16,NNW,330,10.0,16.0,20,0.00,,,0.00,Wunderground v.1.15,2013-04-11 14:15:00,
2013-04-11 07:20:00,62.8,21.1,30.16,WNW,298,13.0,13.0,20,0.00,,,0.00,Wunderground v.1.15,2013-04-11 14:20:00,
2013-04-11 07:25:00,63.2,20.2,30.16,NW,316,13.0,14.0,19,0.00,,,0.00,Wunderground v.1.15,2013-04-11 14:25:00,
2013-04-11 07:30:00,63.7,20.6,30.16,NW,317,11.0,16.0,19,0.00,,,0.00,Wunderground v.1.15,2013-04-11 14:30:00,
2013-04-11 07:40:00,63.6,20.5,30.16,WNW,302,13.0,21.0,19,0.00,,,0.00,Wunderground v.1.15,2013-04-11 14:40:00,
2013-04-11 07:50:00,63.5,21.7,30.15,NW,312,13.0,13.0,20,0.00,,,0.00,Wunderground v.1.15,2013-04-11 14:50:00,
2013-04-11 08:00:00,63.6,21.7,30.15,NW,310,12.0,12.0,20,0.00,,,0.00,Wunderground v.1.15,2013-04-11 15:00:00,
2013-04-11 08:05:00,63.6,21.7,30.14,NW,312,13.0,13.0,20,0.00,,,0.00,Wunderground v.1.15,2013-04-11 15:05:00,
2013-04-11 08:15:00,64.0,22.1,30.15,NW,324,13.0,22.0,20,0.00,,,0.00,Wunderground v.1.15,2013-04-11 15:15:00,
2013-04-11 08:20:00,63.6,21.7,30.14,NNW,335,14.0,14.0,20,0.00,,,0.00,Wunderground v.1.15,2013-04-11 15:20:00,
2013-04-11 08:45:00,63.3,22.7,30.15,NW,315,13.0,26.0,21,0.00,,,0.00,Wunderground v.1.15,2013-04-11 15:45:00,
2013-04-11 08:50:00,63.2,22.6,30.15,NW,312,12.0,26.0,21,0.00,,,0.00,Wunderground v.1.15,2013-04-11 15:50:00,
2013-04-11 08:55:00,63.3,21.5,30.15,NNW,335,9.0,26.0,20,0.00,,,0.00,Wunderground v.1.15,2013-04-11 15:55:00,
2013-04-11 09:00:00,63.2,21.4,30.15,NNW,332,10.0,26.0,20,0.00,,,0.00,Wunderground v.1.15,2013-04-11 16:00:00,
2013-04-11 09:05:00,63.5,21.7,30.16,NNW,346,11.0,26.0,20,0.00,,,0.00,Wunderground v.1.15,2013-04-11 16:05:00,
2013-04-11 09:15:00,64.3,22.3,30.16,NW,316,7.0,9.0,20,0.00,,,0.00,Wunderground v.1.15,2013-04-11 16:15:00,
2013-04-11 09:20:00,64.2,22.2,30.15,NNW,333,9.0,9.0,20,0.00,,,0.00,Wunderground v.1.15,2013-04-11 16:20:00,
2013-04-11 09:30:00,64.5,22.5,30.15,NW,311,10.0,23.0,20,0.00,,,0.00,Wunderground v.1.15,2013-04-11 16:30:00,
2013-04-11 09:35:00,64.7,21.4,30.14,NW,318,11.0,23.0,19,0.00,,,0.00,Wunderground v.1.15,2013-04-11 16:35:00,
2013-04-11 09:45:00,65.3,21.9,30.15,NNW,341,11.0,15.0,19,0.00,,,0.00,Wunderground v.1.15,2013-04-11 16:45:00,
2013-04-11 09:50:00,65.4,22.0,30.15,NW,323,11.0,11.0,19,0.00,,,0.00,Wunderground v.1.15,2013-04-11 16:50:00,
2013-04-11 10:00:00,65.8,22.3,30.15,NW,308,9.0,9.0,19,0.00,,,0.00,Wunderground v.1.15,2013-04-11 17:00:00,
2013-04-11 10:05:00,65.6,22.2,30.15,NNW,336,8.0,22.0,19,0.00,,,0.00,Wunderground v.1.15,2013-04-11 17:05:00,
2013-04-11 10:15:00,65.5,22.1,30.16,NW,308,7.0,22.0,19,0.00,,,0.00,Wunderground v.1.15,2013-04-11 17:15:00,
2013-04-11 10:20:00,65.5,22.1,30.15,WNW,302,7.0,22.0,19,0.00,,,0.00,Wunderground v.1.15,2013-04-11 17:20:00,
2013-04-11 10:30:00,65.8,22.3,30.15,NW,315,6.0,22.0,19,0.00,,,0.00,Wunderground v.1.15,2013-04-11 17:30:00,
2013-04-11 10:35:00,66.3,22.8,30.15,NNW,337,7.0,22.0,19,0.00,,,0.00,Wunderground v.1.15,2013-04-11 17:35:00,
2013-04-11 10:40:00,66.5,22.9,30.15,NNW,348,7.0,18.0,19,0.00,,,0.00,Wunderground v.1.15,2013-04-11 17:40:00,
2013-04-11 10:45:00,67.2,23.5,30.15,NNW,329,6.0,18.0,19,0.00,,,0.00,Wunderground v.1.15,2013-04-11 17:45:00,
2013-04-11 10:50:00,67.8,22.7,30.15,NW,323,7.0,18.0,18,0.00,,,0.00,Wunderground v.1.15,2013-04-11 17:50:00,
2013-04-11 11:00:00,67.1,23.4,30.15,NW,323,11.0,18.0,19,0.00,,,0.00,Wunderground v.1.15,2013-04-11 18:00:00,
2013-04-11 11:05:00,67.7,23.9,30.14,NNW,334,9.0,18.0,19,0.00,,,0.00,Wunderground v.1.15,2013-04-11 18:05:00,
2013-04-11 11:15:00,67.2,23.5,30.14,NW,319,12.0,17.0,19,0.00,,,0.00,Wunderground v.1.15,2013-04-11 18:15:00,
2013-04-11 11:20:00,67.0,23.3,30.14,NNW,337,12.0,17.0,19,0.00,,,0.00,Wunderground v.1.15,2013-04-11 18:20:00,
2013-04-11 11:30:00,68.2,24.3,30.14,NNW,335,11.0,11.0,19,0.00,,,0.00,Wunderground v.1.15,2013-04-11 18:30:00,
2013-04-11 11:35:00,68.5,24.6,30.14,NNW,341,10.0,21.0,19,0.00,,,0.00,Wunderground v.1.15,2013-04-11 18:35:00,
2013-04-11 11:45:00,68.8,23.5,30.13,NW,307,10.0,11.0,18,0.00,,,0.00,Wunderground v.1.15,2013-04-11 18:45:00,
2013-04-11 11:50:00,69.0,25.0,30.13,NW,322,11.0,21.0,19,0.00,,,0.00,Wunderground v.1.15,2013-04-11 18:50:00,
2013-04-11 12:00:00,69.3,25.2,30.13,NW,314,9.0,21.0,19,0.00,,,0.00,Wunderground v.1.15,2013-04-11 19:00:00,
2013-04-11 12:05:00,69.7,24.3,30.13,WNW,289,8.0,22.0,18,0.00,,,0.00,Wunderground v.1.15,2013-04-11 19:05:00,
2013-04-11 12:15:00,69.7,24.3,30.13,NNW,334,6.0,22.0,18,0.00,,,0.00,Wunderground v.1.15,2013-04-11 19:15:00,
2013-04-11 12:20:00,70.0,24.5,30.12,WNW,296,8.0,22.0,18,0.00,,,0.00,Wunderground v.1.15,2013-04-11 19:20:00,
2013-04-11 12:25:00,70.3,24.8,30.12,WNW,303,7.0,22.0,18,0.00,,,0.00,Wunderground v.1.15,2013-04-11 19:25:00,
2013-04-11 12:30:00,70.7,25.1,30.12,NNW,327,8.0,22.0,18,0.00,,,0.00,Wunderground v.1.15,2013-04-11 19:30:00,
2013-04-11 12:40:00,71.2,25.5,30.11,WNW,296,9.0,18.0,18,0.00,,,0.00,Wunderground v.1.15,2013-04-11 19:40:00,
2013-04-11 12:50:00,70.9,25.2,30.11,NNW,337,11.0,18.0,18,0.00,,,0.00,Wunderground v.1.15,2013-04-11 19:50:00,
2013-04-11 13:00:00,70.3,24.8,30.10,NW,306,11.0,18.0,18,0.00,,,0.00,Wunderground v.1.15,2013-04-11 20:00:00,
2013-04-11 13:05:00,70.0,24.5,30.10,NW,323,10.0,20.0,18,0.00,,,0.00,Wunderground v.1.15,2013-04-11 20:05:00,
2013-04-11 13:15:00,71.5,25.7,30.09,NW,304,8.0,20.0,18,0.00,,,0.00,Wunderground v.1.15,2013-04-11 20:15:00,
2013-04-11 13:20:00,71.9,24.7,30.09,North,4,9.0,9.0,17,0.00,,,0.00,Wunderground v.1.15,2013-04-11 20:20:00,
2013-04-11 13:25:00,72.0,24.8,30.09,WNW,302,10.0,10.0,17,0.00,,,0.00,Wunderground v.1.15,2013-04-11 20:25:00,
2013-04-11 13:30:00,72.4,25.1,30.09,NW,314,9.0,20.0,17,0.00,,,0.00,Wunderground v.1.15,2013-04-11 20:30:00,
2013-04-11 13:35:00,72.6,23.8,30.09,WNW,291,10.0,20.0,16,0.00,,,0.00,Wunderground v.1.15,2013-04-11 20:35:00,
2013-04-11 13:45:00,72.3,23.6,30.08,NW,312,11.0,11.0,16,0.00,,,0.00,Wunderground v.1.15,2013-04-11 20:45:00,
2013-04-11 13:50:00,73.1,22.7,30.08,NW,322,11.0,18.0,15,0.00,,,0.00,Wunderground v.1.15,2013-04-11 20:50:00,
2013-04-11 14:00:00,73.4,24.4,30.08,NNW,338,9.0,9.0,16,0.00,,,0.00,Wunderground v.1.15,2013-04-11 21:00:00,
2013-04-11 14:05:00,73.3,22.8,30.07,NW,319,9.0,12.0,15,0.00,,,0.00,Wunderground v.1.15,2013-04-11 21:05:00,
2013-04-11 14:15:00,73.0,24.1,30.07,NW,307,12.0,23.0,16,0.00,,,0.00,Wunderground v.1.15,2013-04-11 21:15:00,
2013-04-11 14:20:00,72.7,23.9,30.07,NW,323,12.0,12.0,16,0.00,,,0.00,Wunderground v.1.15,2013-04-11 21:20:00,
2013-04-11 14:30:00,73.0,24.1,30.06,WNW,302,10.0,10.0,16,0.00,,,0.00,Wunderground v.1.15,2013-04-11 21:30:00,
2013-04-11 14:35:00,73.1,24.2,30.05,NW,308,10.0,16.0,16,0.00,,,0.00,Wunderground v.1.15,2013-04-11 21:35:00,
2013-04-11 14:40:00,73.2,22.7,30.06,NW,306,11.0,11.0,15,0.00,,,0.00,Wunderground v.1.15,2013-04-11 21:40:00,
2013-04-11 14:45:00,73.3,22.8,30.05,NW,305,11.0,12.0,15,0.00,,,0.00,Wunderground v.1.15,2013-04-11 21:45:00,
2013-04-11 14:55:00,73.5,23.0,30.04,WNW,286,11.0,22.0,15,0.00,,,0.00,Wunderground v.1.15,2013-04-11 21:55:00,
2013-04-11 15:00:00,73.2,22.7,30.04,NW,313,12.0,12.0,15,0.00,,,0.00,Wunderground v.1.15,2013-04-11 22:00:00,
2013-04-11 15:10:00,73.1,22.7,30.04,NNW,343,12.0,22.0,15,0.00,,,0.00,Wunderground v.1.15,2013-04-11 22:10:00,
2013-04-11 15:20:00,72.7,23.9,30.03,NW,304,14.0,22.0,16,0.00,,,0.00,Wunderground v.1.15,2013-04-11 22:20:00,
2013-04-11 15:30:00,73.1,24.2,30.02,NNW,333,11.0,22.0,16,0.00,,,0.00,Wunderground v.1.15,2013-04-11 22:30:00,
2013-04-11 15:35:00,73.0,24.1,30.02,NW,309,12.0,23.0,16,0.00,,,0.00,Wunderground v.1.15,2013-04-11 22:35:00,
2013-04-11 15:45:00,73.0,22.6,30.02,NW,317,14.0,23.0,15,0.00,,,0.00,Wunderground v.1.15,2013-04-11 22:45:00,
2013-04-11 15:50:00,72.7,22.3,30.02,WNW,294,14.0,14.0,15,0.00,,,0.00,Wunderground v.1.15,2013-04-11 22:50:00,
2013-04-11 15:55:00,72.7,22.3,30.02,NW,312,14.0,17.0,15,0.00,,,0.00,Wunderground v.1.15,2013-04-11 22:55:00,
2013-04-11 16:00:00,72.3,20.4,30.01,NNW,330,14.0,14.0,14,0.00,,,0.00,Wunderground v.1.15,2013-04-11 23:00:00,
2013-04-11 16:10:00,72.8,22.4,30.01,NNW,340,12.0,12.0,15,0.00,,,0.00,Wunderground v.1.15,2013-04-11 23:10:00,
2013-04-11 16:15:00,73.3,22.8,30.01,NW,310,11.0,26.0,15,0.00,,,0.00,Wunderground v.1.15,2013-04-11 23:15:00,
2013-04-11 16:20:00,73.0,19.2,30.01,NW,318,12.0,26.0,13,0.00,,,0.00,Wunderground v.1.15,2013-04-11 23:20:00,
2013-04-11 16:30:00,72.7,22.3,30.00,WNW,291,12.0,26.0,15,0.00,,,0.00,Wunderground v.1.15,2013-04-11 23:30:00,
2013-04-11 16:35:00,72.2,20.3,30.00,NNW,333,14.0,26.0,14,0.00,,,0.00,Wunderground v.1.15,2013-04-11 23:35:00,
2013-04-11 16:45:00,72.5,23.7,30.00,NW,320,12.0,23.0,16,0.00,,,0.00,Wunderground v.1.15,2013-04-11 23:45:00,
2013-04-11 16:50:00,72.7,25.3,30.00,NW,318,10.0,23.0,17,0.00,,,0.00,Wunderground v.1.15,2013-04-11 23:50:00,
2013-04-11 17:00:00,72.2,26.3,30.00,WNW,289,11.0,11.0,18,0.00,,,0.00,Wunderground v.1.15,2013-04-12 00:00:00,
2013-04-11 17:05:00,72.0,26.1,30.00,WNW,303,10.0,13.0,18,0.00,,,0.00,Wunderground v.1.15,2013-04-12 00:05:00,
2013-04-11 17:10:00,72.0,26.1,29.99,NW,312,10.0,21.0,18,0.00,,,0.00,Wunderground v.1.15,2013-04-12 00:10:00,
2013-04-11 17:15:00,71.9,24.7,29.99,WNW,299,10.0,21.0,17,0.00,,,0.00,Wunderground v.1.15,2013-04-12 00:15:00,
2013-04-11 17:20:00,71.5,25.7,29.99,NW,319,11.0,11.0,18,0.00,,,0.00,Wunderground v.1.15,2013-04-12 00:20:00,
2013-04-11 17:30:00,71.5,25.7,29.99,NW,311,10.0,10.0,18,0.00,,,0.00,Wunderground v.1.15,2013-04-12 00:30:00,
2013-04-11 17:35:00,71.5,25.7,29.99,WNW,287,9.0,13.0,18,0.00,,,0.00,Wunderground v.1.15,2013-04-12 00:35:00,
2013-04-11 17:45:00,71.2,25.5,29.99,NNW,329,10.0,20.0,18,0.00,,,0.00,Wunderground v.1.15,2013-04-12 00:45:00,
2013-04-11 17:50:00,70.9,27.8,29.99,WNW,290,10.0,20.0,20,0.00,,,0.00,Wunderground v.1.15,2013-04-12 00:50:00,
2013-04-11 17:55:00,70.7,27.6,29.99,NW,323,11.0,20.0,20,0.00,,,0.00,Wunderground v.1.15,2013-04-12 00:55:00,
2013-04-11 18:00:00,70.7,28.8,29.99,NNW,328,10.0,20.0,21,0.00,,,0.00,Wunderground v.1.15,2013-04-12 01:00:00,
2013-04-11 18:05:00,70.6,28.7,29.99,North,350,9.0,20.0,21,0.00,,,0.00,Wunderground v.1.15,2013-04-12 01:05:00,
2013-04-11 18:15:00,70.3,29.6,29.98,WNW,289,9.0,17.0,22,0.00,,,0.00,Wunderground v.1.15,2013-04-12 01:15:00,
2013-04-11 18:20:00,70.1,29.5,29.98,NW,306,8.0,8.0,22,0.00,,,0.00,Wunderground v.1.15,2013-04-12 01:20:00,
2013-04-11 18:25:00,70.1,30.6,29.98,NW,316,7.0,12.0,23,0.00,,,0.00,Wunderground v.1.15,2013-04-12 01:25:00,
2013-04-11 18:30:00,69.7,31.3,29.98,NW,315,7.0,17.0,24,0.00,,,0.00,Wunderground v.1.15,2013-04-12 01:30:00,
2013-04-11 18:40:00,69.0,30.7,29.98,WNW,294,6.0,17.0,24,0.00,,,0.00,Wunderground v.1.15,2013-04-12 01:40:00,
2013-04-11 18:45:00,68.8,30.5,29.98,NW,312,6.0,17.0,24,0.00,,,0.00,Wunderground v.1.15,2013-04-12 01:45:00,
2013-04-11 18:50:00,68.7,31.4,29.98,NW,305,4.0,4.0,25,0.00,,,0.00,Wunderground v.1.15,2013-04-12 01:50:00,
2013-04-11 19:00:00,68.2,32.0,29.98,NW,315,5.0,17.0,26,0.00,,,0.00,Wunderground v.1.15,2013-04-12 02:00:00,
2013-04-11 19:05:00,67.9,31.7,29.98,NNW,328,5.0,17.0,26,0.00,,,0.00,Wunderground v.1.15,2013-04-12 02:05:00,
2013-04-11 19:15:00,67.3,32.1,29.98,NNW,327,4.0,13.0,27,0.00,,,0.00,Wunderground v.1.15,2013-04-12 02:15:00,
2013-04-11 19:20:00,67.0,32.8,29.98,NW,314,3.0,13.0,28,0.00,,,0.00,Wunderground v.1.15,2013-04-12 02:20:00,
2013-04-11 19:30:00,66.5,33.2,29.98,NW,318,4.0,4.0,29,0.00,,,0.00,Wunderground v.1.15,2013-04-12 02:30:00,
2013-04-11 19:35:00,66.3,33.9,29.99,NW,318,1.0,13.0,30,0.00,,,0.00,Wunderground v.1.15,2013-04-12 02:35:00,
2013-04-11 19:45:00,65.9,32.7,29.99,NW,318,0.0,13.0,29,0.00,,,0.00,Wunderground v.1.15,2013-04-12 02:45:00,
2013-04-11 19:50:00,65.6,33.3,29.99,North,352,0.0,13.0,30,0.00,,,0.00,Wunderground v.1.15,2013-04-12 02:50:00,
2013-04-11 20:00:00,65.3,33.9,30.00,North,353,0.0,13.0,31,0.00,,,0.00,Wunderground v.1.15,2013-04-12 03:00:00,
2013-04-11 20:05:00,65.1,33.7,29.99,North,353,0.0,13.0,31,0.00,,,0.00,Wunderground v.1.15,2013-04-12 03:05:00,
2013-04-11 20:15:00,64.9,32.7,30.00,NW,321,0.0,3.0,30,0.00,,,0.00,Wunderground v.1.15,2013-04-12 03:15:00,
2013-04-11 20:20:00,65.2,32.1,30.00,NW,319,2.0,3.0,29,0.00,,,0.00,Wunderground v.1.15,2013-04-12 03:20:00,
2013-04-11 20:25:00,65.4,32.3,30.00,NNW,343,4.0,4.0,29,0.00,,,0.00,Wunderground v.1.15,2013-04-12 03:25:00,
2013-04-11 20:30:00,65.5,32.4,30.00,WNW,287,4.0,4.0,29,0.00,,,0.00,Wunderground v.1.15,2013-04-12 03:30:00,
2013-04-11 20:35:00,65.5,32.4,30.00,NNW,341,5.0,5.0,29,0.00,,,0.00,Wunderground v.1.15,2013-04-12 03:35:00,
2013-04-11 20:45:00,65.4,32.3,30.00,NW,312,5.0,11.0,29,0.00,,,0.00,Wunderground v.1.15,2013-04-12 03:45:00,
2013-04-11 20:50:00,65.3,32.2,30.00,NNW,331,2.0,2.0,29,0.00,,,0.00,Wunderground v.1.15,2013-04-12 03:50:00,
2013-04-11 21:00:00,64.6,33.3,30.01,NNW,331,0.0,11.0,31,0.00,,,0.00,Wunderground v.1.15,2013-04-12 04:00:00,
2013-04-11 21:05:00,64.4,32.3,30.01,NNW,327,0.0,11.0,30,0.00,,,0.00,Wunderground v.1.15,2013-04-12 04:05:00,
2013-04-11 21:10:00,64.2,32.1,30.01,NNW,327,0.0,11.0,30,0.00,,,0.00,Wunderground v.1.15,2013-04-12 04:10:00,
2013-04-11 21:15:00,64.0,31.9,30.01,NNW,327,0.0,11.0,30,0.00,,,0.00,Wunderground v.1.15,2013-04-12 04:15:00,
2013-04-11 21:20:00,63.7,33.3,30.01,NNW,327,0.0,11.0,32,0.00,,,0.00,Wunderground v.1.15,2013-04-12 04:20:00,
2013-04-11 21:25:00,63.3,32.9,30.00,NNW,327,0.0,11.0,32,0.00,,,0.00,Wunderground v.1.15,2013-04-12 04:25:00,
2013-04-11 21:30:00,62.9,32.6,30.01,NNW,327,0.0,11.0,32,0.00,,,0.00,Wunderground v.1.15,2013-04-12 04:30:00,
2013-04-11 21:35:00,62.5,32.2,30.01,NNW,327,0.0,11.0,32,0.00,,,0.00,Wunderground v.1.15,2013-04-12 04:35:00,
2013-04-11 21:45:00,62.2,32.0,30.01,NNW,327,0.0,4.0,32,0.00,,,0.00,Wunderground v.1.15,2013-04-12 04:45:00,
2013-04-11 21:50:00,62.4,32.1,30.01,NNW,327,0.0,4.0,32,0.00,,,0.00,Wunderground v.1.15,2013-04-12 04:50:00,
2013-04-11 22:00:00,62.1,31.1,30.01,NNW,327,0.0,4.0,31,0.00,,,0.00,Wunderground v.1.15,2013-04-12 05:00:00,
2013-04-11 22:05:00,61.6,30.6,30.01,NNW,327,0.0,4.0,31,0.00,,,0.00,Wunderground v.1.15,2013-04-12 05:05:00,
2013-04-11 22:15:00,61.3,31.9,30.01,NW,323,0.0,0.0,33,0.00,,,0.00,Wunderground v.1.15,2013-04-12 05:15:00,
2013-04-11 22:20:00,61.1,31.8,30.02,NW,323,0.0,0.0,33,0.00,,,0.00,Wunderground v.1.15,2013-04-12 05:20:00,
2013-04-11 22:25:00,61.0,31.7,30.02,NW,323,0.0,0.0,33,0.00,,,0.00,Wunderground v.1.15,2013-04-12 05:25:00,
2013-04-11 22:35:00,61.0,32.4,30.02,NW,323,0.0,0.0,34,0.00,,,0.00,Wunderground v.1.15,2013-04-12 05:35:00,
2013-04-11 22:45:00,61.0,31.7,30.02,NW,323,0.0,0.0,33,0.00,,,0.00,Wunderground v.1.15,2013-04-12 05:45:00,
2013-04-11 22:50:00,61.0,31.7,30.01,NW,323,0.0,0.0,33,0.00,,,0.00,Wunderground v.1.15,2013-04-12 05:50:00,
2013-04-11 23:00:00,60.5,31.2,30.02,NW,323,0.0,0.0,33,0.00,,,0.00,Wunderground v.1.15,2013-04-12 06:00:00,
2013-04-11 23:05:00,60.2,31.0,30.01,NW,323,0.0,2.0,33,0.00,,,0.00,Wunderground v.1.15,2013-04-12 06:05:00,
2013-04-11 23:15:00,59.3,30.2,30.02,NW,323,0.0,2.0,33,0.00,,,0.00,Wunderground v.1.15,2013-04-12 06:15:00,
2013-04-11 23:20:00,59.4,31.0,30.02,WNW,289,1.0,2.0,34,0.00,,,0.00,Wunderground v.1.15,2013-04-12 06:20:00,
2013-04-11 23:25:00,59.7,30.5,30.02,WNW,284,1.0,2.0,33,0.00,,,0.00,Wunderground v.1.15,2013-04-12 06:25:00,
2013-04-11 23:35:00,59.6,31.2,30.02,WNW,283,0.0,5.0,34,0.00,,,0.00,Wunderground v.1.15,2013-04-12 06:35:00,
2013-04-11 23:40:00,59.6,31.2,30.02,WNW,283,1.0,1.0,34,0.00,,,0.00,Wunderground v.1.15,2013-04-12 06:40:00,
2013-04-11 23:45:00,59.8,31.3,30.02,WNW,283,1.0,5.0,34,0.00,,,0.00,Wunderground v.1.15,2013-04-12 06:45:00,
2013-04-11 23:50:00,59.8,31.3,30.02,WNW,283,0.0,5.0,34,0.00,,,0.00,Wunderground v.1.15,2013-04-12 06:50:00,